Overview Statistics Trail Chart Weather Telemetry Raw packets
 

This is the latest recevied weather packets stored in our database for station/object DM8MH-13. If no packets are shown the sender has not sent any weather packets the latest 10 day(s).

<< 16 17 18 19 20 21 22 >>
Time Temp. Humidity Pressure Rain* Wind** Luminosity Snow
1788440470 19.44° C 77% 1016.6 hPa 0.25 mm - 73 W/m² -
1788439870 20° C 73% 1016.9 hPa 0 mm - 23 W/m² -
1788439270 21.67° C 61% 1016.3 hPa 0 mm - 32 W/m² -
1788438671 22.22° C 59% 1016.3 hPa 0 mm - 46 W/m² -
1788438071 22.22° C 57% 1015.8 hPa 0 mm - 127 W/m² -
1788437471 22.78° C 57% 1015.8 hPa 0 mm - 136 W/m² -
1788436870 23.33° C 56% 1015.7 hPa 0 mm - 210 W/m² -
1788436270 23.33° C 55% 1015.6 hPa 0 mm - 378 W/m² -
1788435670 23.33° C 55% 1015.8 hPa 0 mm - 317 W/m² -
1788435070 23.33° C 55% 1015.7 hPa 0 mm - 370 W/m² -
1788434471 23.33° C 54% 1015.9 hPa 0 mm - 362 W/m² -
1788433870 23.89° C 54% 1016 hPa 0 mm - 658 W/m² -
1788433270 23.33° C 54% 1016 hPa 0 mm - 695 W/m² -
1788432671 23.33° C 56% 1016.3 hPa 0 mm - 468 W/m² -
1788432070 22.22° C 59% 1016.2 hPa 0 mm - 876 W/m² -
1788431470 21.67° C 61% 1016.5 hPa 0 mm - 320 W/m² -
1788430871 21.11° C 62% 1016.6 hPa 0 mm - 234 W/m² -
1788430270 21.11° C 62% 1016.7 hPa 0 mm - 288 W/m² -
1788429670 20.56° C 63% 1016.8 hPa 0 mm - 249 W/m² -
1788429070 20.56° C 64% 1017 hPa 0 mm - 466 W/m² -
1788428470 20° C 65% 1017.1 hPa 0 mm - 276 W/m² -
1788427871 19.44° C 67% 1017.2 hPa 0 mm - 219 W/m² -
1788427271 19.44° C 67% 1017.3 hPa 0 mm - 243 W/m² -
1788426670 19.44° C 66% 1017.5 hPa 0 mm - 230 W/m² -
1788426071 19.44° C 66% 1017.6 hPa 0 mm - 198 W/m² -

* Rain latest hour (hover to see other rain measurements)
** Current wind speed in m/s (hover to see current wind gust speed)